Lakehurst NAS, NJ

1:43 AM EST on February 20, 2018 (GMT -0500)
Lakehurst Naes

Weather History for KNEL - March, 2013

Change the Weather History Date:

Friday, March 8, 2013

  Actual Average Record
Temperature  
Mean Temperature 40 °F -  
Max Temperature 44 °F 44 °F 70 °F (2016)
Min Temperature 35 °F 32 °F -31 °F (1999)
Degree Days  
Heating Degree Days 24    
Moisture  
Dew Point 31 °F    
Average Humidity 73    
Maximum Humidity 81    
Minimum Humidity 55    
Precipitation  
Precipitation 0.00 in - - ()
Sea Level Pressure  
Sea Level Pressure 30.04 in    
Wind  
Wind Speed 7 mph (NW)    
Max Wind Speed 10 mph    
Max Gust Speed 21 mph    
Averages and records for this station are not official NWS values.
T = Trace of Precipitation, MM = Missing Value Source: NWS Daily Summary

Daily Weather History Graph

Daily Weather History Graph

Search for Another Location

Airport or City:

Trip Planner

Search our weather history database for the weather conditions in past years. The results will help you decide how hot, cold, wet, or windy it might be!

Date:

Astronomy

Mar. 08, 2013 Rise Set
Actual Time 6:19 AM EST 5:57 PM EST
Civil Twilight 5:52 AM EST 6:24 PM EST
Nautical Twilight 5:21 AM EST 6:55 PM EST
Astronomical Twilight 4:49 AM EST 7:27 PM EST
Moon 4:02 AM EST (3/8) 2:49 PM EST (3/8)
Length of Visible Light 12h 31m
Length of Day
11h 37m
Waning Crescent, 12% of the Moon is Illuminated
Mar 8
Waning Crescent
Mar 11
New
Mar 19
First Quarter
Mar 27
Full
Apr 3
Last Quarter

Hourly Weather History & Observations

Time (EST) Temp. Windchill Dew Point Humidity Pressure Visibility Wind Dir Wind Speed Gust Speed Precip Events Conditions
12:31 AM 39.2 °F 34.2 °F 32.0 °F 75% 30.05 in - NNW 6.9 mph - N/A   Overcast
1:00 AM 37.9 °F 32.7 °F 30.9 °F 76% 30.05 in - NW 6.9 mph - 0.00 in Snow Light Snow
1:07 AM 39.2 °F 34.2 °F 30.2 °F 70% 30.05 in - NW 6.9 mph - 0.00 in   Unknown
1:14 AM 37.4 °F 32.1 °F 30.2 °F 75% 30.04 in - NNW 6.9 mph 16.1 mph 0.00 in Snow Light Snow
2:00 AM 39.0 °F 34.0 °F 30.9 °F 73% 30.03 in - Variable 6.9 mph - 0.00 in   Overcast
3:00 AM 37.4 °F 32.1 °F 30.2 °F 75% 30.01 in - NW 6.9 mph - 0.00 in Snow Light Snow
3:08 AM 39.2 °F 32.5 °F 30.2 °F 70% 30.01 in - NW 10.4 mph - 0.00 in   Unknown
3:38 AM 39.2 °F 33.6 °F 30.2 °F 70% 30.01 in - NW 8.1 mph - 0.00 in   Overcast
4:00 AM 37.9 °F 32.1 °F 30.0 °F 73% 30.00 in - NW 8.1 mph - 0.00 in   Overcast
4:46 AM 37.4 °F 32.1 °F 28.4 °F 70% 30.00 in - NW 6.9 mph - 0.00 in Snow Snow
5:06 AM 37.0 °F 31.0 °F 28.9 °F 73% 30.00 in - NW 8.1 mph - 0.00 in Snow Light Snow
6:00 AM 37.0 °F 31.0 °F 28.9 °F 73% 30.00 in - NW 8.1 mph - 0.00 in Snow Snow
6:46 AM 35.6 °F 29.2 °F 28.4 °F 75% 30.00 in - NW 8.1 mph - 0.00 in Snow Snow
7:25 AM 37.4 °F 31.4 °F 28.4 °F 70% 30.01 in - NW 8.1 mph - 0.00 in Snow Snow
7:40 AM 37.4 °F 31.4 °F 28.4 °F 70% 30.01 in - NW 8.1 mph - 0.00 in Snow Snow
8:00 AM 35.6 °F 29.9 °F 28.4 °F 75% 30.01 in - NNW 6.9 mph - 0.00 in Snow Snow
8:06 AM 35.6 °F 29.2 °F 28.4 °F 75% 30.01 in - NNW 8.1 mph - 0.00 in Snow Snow
9:00 AM 36.0 °F 29.6 °F 28.9 °F 76% 30.02 in - NW 8.1 mph 16.1 mph 0.00 in Snow Light Snow
9:53 AM 37.4 °F 32.1 °F 28.4 °F 70% 30.03 in - Variable 6.9 mph 16.1 mph 0.00 in Snow Light Snow
10:08 AM 37.4 °F 31.4 °F 30.2 °F 75% 30.02 in - NNW 8.1 mph 16.1 mph 0.00 in Snow Light Snow
10:13 AM 35.6 °F 29.2 °F 30.2 °F 81% 30.02 in - NW 8.1 mph - 0.00 in Snow Light Snow
10:25 AM 37.4 °F 31.4 °F 28.4 °F 70% 30.02 in - NW 8.1 mph - 0.00 in Snow Light Snow
11:00 AM 37.4 °F 30.8 °F 30.2 °F 75% 30.03 in - NNW 9.2 mph 17.3 mph 0.00 in Snow Light Snow
11:07 AM 37.4 °F 30.8 °F 30.2 °F 75% 30.03 in - NNW 9.2 mph 17.3 mph 0.00 in Snow Light Snow
11:22 AM 37.9 °F 31.5 °F 30.9 °F 76% 30.04 in - NNW 9.2 mph 17.3 mph 0.00 in Snow Light Snow
11:33 AM 37.4 °F 30.3 °F 30.2 °F 75% 30.04 in - NW 10.4 mph 20.7 mph 0.00 in Snow Snow
11:48 AM 37.4 °F 31.4 °F 30.2 °F 75% 30.04 in - NW 8.1 mph - 0.00 in Snow Snow
11:58 AM 37.4 °F 31.4 °F 30.2 °F 75% 30.04 in - NW 8.1 mph - 0.00 in Snow Snow
12:00 PM 37.9 °F 30.9 °F 30.9 °F 76% 30.04 in - NNW 10.4 mph 17.3 mph 0.00 in Snow Snow
1:00 PM 37.0 °F 31.0 °F 30.9 °F 79% 30.03 in - NNW 8.1 mph 17.3 mph 0.00 in Snow Snow
1:31 PM 37.4 °F 30.3 °F 30.2 °F 75% 30.03 in - NNW 10.4 mph 19.6 mph 0.00 in Snow Light Snow
1:56 PM 39.2 °F 34.2 °F 32.0 °F 75% 30.03 in - NW 6.9 mph - 0.00 in   Overcast
2:00 PM 37.4 °F 32.8 °F 32.0 °F 81% 30.03 in - Variable 5.8 mph - 0.00 in Snow Light Snow
2:06 PM 39.9 °F 34.5 °F 32.0 °F 73% 30.03 in - NNW 8.1 mph - 0.00 in   Unknown
3:00 PM 39.0 °F 34.0 °F 32.0 °F 76% 30.04 in - Variable 6.9 mph - 0.00 in Rain Light Rain
4:00 PM 39.9 °F 36.7 °F 33.1 °F 77% 30.05 in - NNW 4.6 mph - 0.00 in Rain Light Rain
4:44 PM 42.8 °F 40.1 °F 33.8 °F 70% 30.07 in - NW 4.6 mph - 0.00 in Rain Light Rain
5:00 PM 45.0 °F 42.6 °F 34.0 °F 65% 30.08 in - NW 4.6 mph - 0.00 in Rain Light Rain
6:00 PM 41.0 °F 39.0 °F 35.1 °F 79% 30.09 in - Variable 3.5 mph - 0.00 in   Overcast
7:00 PM 45.0 °F 43.5 °F 35.1 °F 68% 30.12 in - NW 3.5 mph - N/A   Overcast
8:00 PM 44.1 °F - 35.1 °F 71% 30.14 in - North - - N/A   Overcast
9:00 PM 46.9 °F - 35.1 °F 63% 30.16 in - NW 4.6 mph - N/A   Overcast
10:00 PM 44.1 °F 39.5 °F 32.0 °F 63% 30.16 in - NW 8.1 mph - N/A   Overcast
11:00 PM 44.1 °F 39.5 °F 28.9 °F 55% 30.17 in - NNW 8.1 mph - N/A   Overcast